TimeEST,TemperatureF,Dew PointF,Humidity,Sea Level PressureIn,VisibilityMPH,Wind Direction,Wind SpeedMPH,Gust SpeedMPH,PrecipitationIn,Events,Conditions,WindDirDegrees,DateUTC
12:16 AM,30.2,28.4,93,29.82,1.2,North,12.7,26.5,0.01,Snow,Light Snow,360,2012-11-08 05:16:00
12:27 AM,30.2,28.4,93,29.82,1.8,North,17.3,21.9,0.01,Snow,Light Snow,360,2012-11-08 05:27:00
12:51 AM,30.9,28.0,89,29.81,1.2,North,13.8,24.2,0.02,Snow,Light Snow,10,2012-11-08 05:51:00
1:14 AM,32.0,28.4,87,29.80,1.2,North,15.0,25.3,0.01,Snow,Light Snow,360,2012-11-08 06:14:00
1:29 AM,30.2,28.4,93,29.80,0.8,North,18.4,29.9,0.02,Snow,Light Snow,360,2012-11-08 06:29:00
1:36 AM,30.2,28.4,93,29.80,0.8,North,15.0,27.6,0.02,Snow,Light Snow,10,2012-11-08 06:36:00
1:51 AM,30.9,28.9,92,29.80,0.8,North,17.3,26.5,0.03,Snow,Light Snow,10,2012-11-08 06:51:00
2:21 AM,32.0,28.4,87,29.78,1.0,North,19.6,27.6,0.02,Snow,Light Snow,10,2012-11-08 07:21:00
2:30 AM,32.0,28.4,87,29.78,1.0,North,15.0,28.8,0.03,Snow,Light Snow,10,2012-11-08 07:30:00
2:37 AM,32.0,28.4,87,29.78,1.0,North,13.8,24.2,0.03,Snow,Light Snow,10,2012-11-08 07:37:00
2:49 AM,32.0,28.4,87,29.77,1.2,North,19.6,25.3,0.03,Snow,Light Snow,360,2012-11-08 07:49:00
2:51 AM,32.0,28.9,88,29.78,1.2,North,16.1,25.3,0.03,Snow,Light Snow,10,2012-11-08 07:51:00
3:32 AM,32.0,30.2,93,29.76,1.8,North,16.1,27.6,0.01,Snow,Light Snow,360,2012-11-08 08:32:00
3:51 AM,33.1,30.0,89,29.76,2.5,North,18.4,24.2,0.02,Snow,Light Snow,10,2012-11-08 08:51:00
4:00 AM,33.8,30.2,87,29.76,2.5,North,15.0,25.3,0.00,Snow,Light Snow,10,2012-11-08 09:00:00
4:11 AM,33.8,30.2,87,29.75,3.0,North,15.0,23.0,0.00,Snow,Light Snow,360,2012-11-08 09:11:00
4:26 AM,33.8,30.2,87,29.76,4.0,North,13.8,31.1,0.00,Snow,Light Snow,10,2012-11-08 09:26:00
4:33 AM,33.8,30.2,87,29.75,6.0,North,12.7,21.9,0.00,Snow,Light Snow,10,2012-11-08 09:33:00
4:51 AM,33.1,30.0,89,29.75,8.0,North,17.3,24.2,0.00,Rain,Light Rain,10,2012-11-08 09:51:00
5:23 AM,33.8,30.2,87,29.74,2.5,North,16.1,25.3,0.01,Snow,Light Snow,10,2012-11-08 10:23:00
5:42 AM,33.8,30.2,87,29.74,2.5,North,12.7,20.7,0.04,Rain,Light Freezing Rain,10,2012-11-08 10:42:00
5:51 AM,33.1,30.9,92,29.74,2.5,North,17.3,27.6,0.05,Rain,Light Freezing Rain,360,2012-11-08 10:51:00
5:55 AM,33.8,30.2,87,29.73,2.5,North,17.3,27.6,0.00,Snow,Light Snow,360,2012-11-08 10:55:00
6:06 AM,33.8,30.2,87,29.73,2.0,North,16.1,24.2,0.00,,Overcast,10,2012-11-08 11:06:00
6:18 AM,33.8,30.2,87,29.73,3.0,North,13.8,25.3,0.01,Snow,Light Snow,360,2012-11-08 11:18:00
6:51 AM,34.0,30.9,89,29.73,3.0,North,16.1,24.2,0.01,Rain,Light Rain,10,2012-11-08 11:51:00
7:51 AM,34.0,30.9,89,29.73,6.0,North,12.7,24.2,0.01,,Overcast,360,2012-11-08 12:51:00
8:51 AM,35.1,32.0,89,29.73,5.0,North,16.1,25.3,0.00,Snow,Light Snow,10,2012-11-08 13:51:00
9:43 AM,35.6,32.0,87,29.71,1.8,North,18.4,27.6,0.03,Rain,Rain,10,2012-11-08 14:43:00
9:51 AM,35.1,32.0,89,29.71,2.0,North,18.4,29.9,0.06,Rain,Heavy Rain,360,2012-11-08 14:51:00
10:09 AM,35.6,33.8,93,29.71,4.0,North,16.1,29.9,0.04,Rain,Light Rain,350,2012-11-08 15:09:00
10:51 AM,36.0,33.1,89,29.70,9.0,North,19.6,28.8,0.04,,Overcast,360,2012-11-08 15:51:00
11:51 AM,37.0,33.1,86,29.68,9.0,North,19.6,31.1,N/A,,Overcast,10,2012-11-08 16:51:00
12:51 PM,37.0,34.0,89,29.67,10.0,North,15.0,31.1,N/A,,Overcast,360,2012-11-08 17:51:00
1:51 PM,37.9,34.0,86,29.67,9.0,North,19.6,29.9,0.00,Rain,Light Rain,360,2012-11-08 18:51:00
2:22 PM,37.4,35.6,93,29.67,2.0,North,15.0,25.3,0.04,Snow,Light Snow,360,2012-11-08 19:22:00
2:35 PM,37.4,35.6,93,29.67,4.0,North,15.0,25.3,0.05,Rain,Light Rain,360,2012-11-08 19:35:00
2:51 PM,37.0,35.1,93,29.68,5.0,North,12.7,25.3,0.07,Rain,Light Rain,360,2012-11-08 19:51:00
2:55 PM,37.4,35.6,93,29.67,5.0,North,17.3,26.5,0.01,Rain,Rain,350,2012-11-08 19:55:00
3:07 PM,37.4,35.6,93,29.68,2.5,North,15.0,24.2,0.05,Rain,Rain,350,2012-11-08 20:07:00
3:10 PM,37.4,35.6,93,29.67,3.0,North,17.3,26.5,0.06,Rain,Heavy Rain,360,2012-11-08 20:10:00
3:37 PM,37.4,35.6,93,29.68,2.5,North,13.8,23.0,0.08,Rain,Rain,360,2012-11-08 20:37:00
3:39 PM,37.4,35.6,93,29.68,3.0,North,13.8,23.0,0.08,Rain,Light Rain,360,2012-11-08 20:39:00
3:51 PM,37.0,35.1,93,29.69,3.0,North,11.5,21.9,0.11,Rain,Rain,350,2012-11-08 20:51:00
4:58 PM,37.4,35.6,93,29.70,10.0,North,12.7,25.3,0.00,Rain,Light Rain,360,2012-11-08 21:58:00
5:51 PM,37.9,35.1,89,29.72,10.0,North,16.1,24.2,0.03,Rain,Light Rain,350,2012-11-08 22:51:00
7:51 PM,37.9,35.1,89,29.73,10.0,NNW,13.8,-,0.00,Rain,Light Rain,340,2012-11-09 00:51:00
8:51 PM,37.9,35.1,89,29.73,10.0,NNW,12.7,-,0.00,,Overcast,340,2012-11-09 01:51:00
9:51 PM,39.0,35.1,86,29.72,10.0,NNW,11.5,-,0.01,Rain,Light Rain,340,2012-11-09 02:51:00
10:51 PM,39.0,34.0,82,29.73,10.0,NW,9.2,-,0.00,,Overcast,320,2012-11-09 03:51:00
11:47 PM,39.2,33.8,81,29.73,10.0,NW,10.4,-,N/A,,Overcast,320,2012-11-09 04:47:00
11:51 PM,39.9,33.1,77,29.73,10.0,NW,11.5,-,N/A,,Overcast,320,2012-11-09 04:51:00